User: anonymous   Login
Location: *
(46.3500°N, 10.9000°E)
Time: 15:13:04
(UTC+00:00)
Language:

CZ-4C R/B - Orbit

View from above orbital plane
View from above orbital plane
View from above satellite
View from above satellite

Ground track
Ground track

The orbit data is extracted from the following two-line orbital elements,

1 36416U 10009D   21162.79294489 -.00000119  00000-0 -22076-5 0  9999
2 36416  63.4205 314.5383 0530187 355.6085   4.0393 13.69594443563534
Epoch (UTC): 11 June 2021 19:01:50
Eccentricity: 0.0530187
inclination: 63.4205°
perigee height: 610 km
apogee height: 1392 km
right ascension of ascending node: 314.5383°
argument of perigee: 355.6085°
revolutions per day: 13.69594443
mean anomaly at epoch: 4.0393°
orbit number at epoch: 56353

The dashed part of the orbit path shows where the satellite is in the earth's shadow,  

DLR